Torna al catalogo

SL-16 DEB

AttivoLEO
NORAD 22333·DEBRIS·🇷🇺 Russia

Lanciato Dec 25, 1992 da Baikonur Cosmodrome

Loading…

Prossimi Passaggi (prossime 24 ore)

TLE

AggiornatoSource: Space-Track

Epoca: Sep 14, 2026, 09:32 UTC

1 22333U 92093W   26257.39740601  .00000303  00000-0  91969-4 0  9992
2 22333  71.0009 239.9591 0120598  68.6294 292.7663 14.46181261752968

Traccia SL-16 DEB in tempo reale con AllMySat

Download on the App Store